Epoch 2022 Aug. 9.0 TT = JDT 2459800.5
T 2021 Oct. 18.32810 TT Rudenko
q 2.4556035 (2000.0) P Q
n 0.14408599 Peri. 167.45139 -0.09113668 -0.97686769
a 3.6034752 Node 287.52979 +0.89523528 +0.00471645
e 0.3185458 Incl. 11.70503 +0.43617417 -0.21379261
P 6.84
From 2581 observations 2013 Aug. 11-2022 May 22, mean residual 0".6.